Weather History for Roenne, Denmark

Change the Weather History Date:

Saturday, February 16, 2013

  Actual Average Record
Temperature  
Mean Temperature 32 °F -  
Max Temperature 33 °F 37 °F 44 °F (1998)
Min Temperature 32 °F 30 °F 15 °F (1997)
Degree Days  
Heating Degree Days 32    
Moisture  
Dew Point 31 °F    
Average Humidity 92    
Maximum Humidity 100    
Minimum Humidity 80    
Precipitation  
Precipitation 0.00 in - - ()
Sea Level Pressure  
Sea Level Pressure 30.28 in    
Wind  
Wind Speed 5 mph ()    
Max Wind Speed 12 mph    
Max Gust Speed -    
Visibility 4.2 miles    
Events Rain    
Averages and records for this station are not official NWS values.
T = Trace of Precipitation, MM = Missing Value Source: Averaged Metar Reports

Daily Weather History Graph

Daily Weather History Graph

Search for Another Location

Airport:

Trip Planner

Search our weather history database for the weather conditions in past years. The results will help you decide how hot, cold, wet, or windy it might be!

Date:

Astronomy

Feb. 16, 2013 Rise Set
Actual Time 7:21 AM CET 5:09 PM CET
Civil Twilight 6:43 AM CET 5:47 PM CET
Nautical Twilight 6:01 AM CET 6:29 PM CET
Astronomical Twilight 5:19 AM CET 7:11 PM CET
Moon 9:12 AM CET (2/16) 12:00 AM CET (2/16)
Length of Visible Light 11h 03m
Length of Day
9h 48m
Waxing Crescent, 37% of the Moon is Illuminated
Feb 16
Waxing Crescent
Feb 17
First Quarter
Feb 25
Full
Mar 4
Last Quarter
Mar 11
New

Hourly Weather History & Observations

Time (CET) Temp. Windchill Dew Point Humidity Pressure Visibility Wind Dir Wind Speed Gust Speed Precip Events Conditions
12:20 AM 33.8 °F 29.6 °F 32.0 °F 93% 30.21 in - ENE 4.6 mph - N/A   Overcast
12:50 AM 33.8 °F 29.6 °F 32.0 °F 93% 30.21 in - East 4.6 mph - N/A   Overcast
1:20 AM 33.8 °F 28.6 °F 32.0 °F 93% 30.21 in 3.1 mi East 5.8 mph - N/A   Overcast
1:50 AM 33.8 °F 28.6 °F 32.0 °F 93% 30.21 in 3.1 mi East 5.8 mph - N/A   Overcast
2:20 AM 33.8 °F 28.6 °F 32.0 °F 93% 30.21 in 3.7 mi East 5.8 mph - N/A   Overcast
2:50 AM 33.8 °F 28.6 °F 32.0 °F 93% 30.21 in 3.7 mi ENE 5.8 mph - N/A   Overcast
3:20 AM 33.8 °F 29.6 °F 32.0 °F 93% 30.21 in 3.7 mi East 4.6 mph - N/A   Overcast
3:50 AM 33.8 °F 30.8 °F 32.0 °F 93% 30.21 in 3.7 mi ESE 3.5 mph - N/A   Overcast
4:20 AM 33.8 °F - 32.0 °F 93% 30.21 in 3.7 mi ESE 2.3 mph - N/A   Overcast
4:50 AM 33.8 °F 28.6 °F 32.0 °F 93% 30.21 in 3.7 mi East 5.8 mph - N/A   Overcast
5:20 AM 33.8 °F 30.8 °F 30.2 °F 87% 30.24 in 4.3 mi ENE 3.5 mph - N/A   Overcast
5:50 AM 33.8 °F 29.6 °F 30.2 °F 87% 30.24 in 5.0 mi ENE 4.6 mph - N/A   Overcast
6:20 AM 33.8 °F 28.6 °F 30.2 °F 87% 30.24 in 3.7 mi East 5.8 mph - N/A   Overcast
6:50 AM 33.8 °F 29.6 °F 32.0 °F 93% 30.24 in - East 4.6 mph - N/A   Overcast
7:20 AM 33.8 °F 30.8 °F 32.0 °F 93% 30.24 in - East 3.5 mph - N/A   Overcast
7:50 AM 33.8 °F 30.8 °F 32.0 °F 93% 30.24 in - ENE 3.5 mph - N/A Rain Light Rain Showers
8:20 AM 33.8 °F 29.6 °F 32.0 °F 93% 30.27 in - East 4.6 mph - N/A   Overcast
8:50 AM 33.8 °F 28.6 °F 32.0 °F 93% 30.27 in - East 5.8 mph - N/A   Overcast
9:20 AM 33.8 °F 29.6 °F 32.0 °F 93% 30.27 in - East 4.6 mph - N/A Rain Light Rain
9:50 AM 33.8 °F 29.6 °F 32.0 °F 93% 30.27 in - East 4.6 mph - N/A Rain Light Rain Showers
10:20 AM 33.8 °F 28.6 °F 33.8 °F 100% 30.27 in - East 5.8 mph - N/A Rain Light Rain Showers
10:50 AM 33.8 °F 29.6 °F 33.8 °F 100% 30.30 in 1.8 mi East 4.6 mph - N/A   Drizzle
11:20 AM 33.8 °F 29.6 °F 33.8 °F 100% 30.30 in 1.6 mi East 4.6 mph - N/A   Light Drizzle
11:50 AM 33.8 °F 28.6 °F 33.8 °F 100% 30.30 in 1.4 mi East 5.8 mph - N/A   Drizzle
12:20 PM 33.8 °F 28.6 °F 33.8 °F 100% 30.27 in 1.3 mi East 5.8 mph - N/A   Drizzle
12:50 PM 33.8 °F 27.7 °F 33.8 °F 100% 30.30 in 1.5 mi East 6.9 mph - N/A   Light Drizzle
1:20 PM 33.8 °F 27.7 °F 33.8 °F 100% 30.27 in - East 6.9 mph - N/A   Mostly Cloudy
1:50 PM 33.8 °F 28.6 °F 32.0 °F 93% 30.30 in - East 5.8 mph - N/A   Mostly Cloudy
2:20 PM 33.8 °F 27.7 °F 32.0 °F 93% 30.30 in - East 6.9 mph - N/A   Mostly Cloudy
2:50 PM 33.8 °F 28.6 °F 32.0 °F 93% 30.30 in - East 5.8 mph - N/A   Mostly Cloudy
3:20 PM 33.8 °F 27.7 °F 32.0 °F 93% 30.30 in 3.1 mi East 6.9 mph - N/A   Mostly Cloudy
3:50 PM 33.8 °F 27.7 °F 32.0 °F 93% 30.30 in 3.1 mi East 6.9 mph - N/A   Mostly Cloudy
4:20 PM 33.8 °F 27.7 °F 32.0 °F 93% 30.30 in 3.1 mi East 6.9 mph - N/A   Mostly Cloudy
4:50 PM 33.8 °F 28.6 °F 32.0 °F 93% 30.30 in 3.7 mi East 5.8 mph - N/A   Mostly Cloudy
5:20 PM 33.8 °F 28.6 °F 32.0 °F 93% 30.30 in 3.7 mi East 5.8 mph - N/A   Mostly Cloudy
5:50 PM 33.8 °F 27.7 °F 32.0 °F 93% 30.30 in 5.0 mi East 6.9 mph - N/A   Mostly Cloudy
6:20 PM 33.8 °F 26.4 °F 30.2 °F 87% 30.33 in 5.6 mi East 9.2 mph - N/A   Mostly Cloudy
7:20 PM 33.8 °F 26.4 °F 30.2 °F 87% 30.33 in 6.2 mi East 9.2 mph - N/A   Overcast
7:50 PM 33.8 °F 27.0 °F 30.2 °F 87% 30.33 in 6.2 mi East 8.1 mph - N/A   Overcast
8:20 PM 33.8 °F 27.0 °F 30.2 °F 87% 30.33 in 6.2 mi ENE 8.1 mph - N/A   Overcast
8:50 PM 33.8 °F 25.8 °F 30.2 °F 87% 30.33 in 6.2 mi East 10.4 mph - N/A   Overcast
9:20 PM 33.8 °F 25.8 °F 28.4 °F 81% 30.33 in 6.2 mi East 10.4 mph - N/A   Overcast
9:50 PM 33.8 °F 25.3 °F 28.4 °F 81% 30.33 in 6.2 mi ENE 11.5 mph - N/A   Overcast
10:20 PM 32.0 °F 23.6 °F 28.4 °F 87% 30.33 in 6.2 mi ENE 10.4 mph - N/A   Overcast
10:50 PM 32.0 °F 24.2 °F 28.4 °F 87% 30.33 in 6.2 mi ENE 9.2 mph - N/A   Overcast
11:20 PM 32.0 °F 24.2 °F 28.4 °F 87% 30.33 in 6.2 mi ENE 9.2 mph - N/A   Overcast
11:50 PM 32.0 °F 24.2 °F 26.6 °F 80% 30.33 in 6.2 mi NE 9.2 mph - N/A   Overcast